[[{"header":{"parameterUnit":"m.s-1","parameterCategory":1,"la1":30.2991,"la2":30.254,"lo1":-89.0895,"lo2":-89.0444,"dy":0.0017,"dx":0.0017,"nx":28,"ny":28,"refTime":"2025-08-07T03:00:00:Z","depth":0,"parameterNumber":2,"parameterNumberName":"U-component_of_WINDS"},"data":[0,0,0,0,0,0,0,0,0,0,0,0,0,0,0,0,0,0,0,0,0,0,0,0,0,0,0,0,0,0,0,0,0,0,0,0,0,0,0,0,0,0,0,0,0,0,0,0,0,0,0,0,0,0,0,0,0,0,-1.6267,-1.6268,0,-1.6453,-1.6455,-1.6457,-1.654,-1.654,-1.6539,-1.6539,-1.673,-1.6735,-1.674,0,0,0,0,0,0,0,0,0,0,0,0,0,-1.5982,-1.5987,-1.6266,-1.6269,-1.6271,-1.6453,-1.6455,-1.6458,-1.654,-1.654,-1.6539,-1.6539,-1.6728,-1.6734,-1.6741,0,0,0,0,0,0,0,0,0,0,0,0,0,-1.6131,-1.5989,-1.6266,-1.6334,-1.6342,-1.6452,-1.6455,-1.6458,-1.654,-1.654,-1.6539,-1.6539,-1.6726,-1.6734,-1.6741,-1.6798,0,0,-1.6766,-1.6769,0,0,0,0,0,0,0,0,-1.6122,-1.6141,-1.6322,-1.6329,-1.6339,-1.6473,-1.6425,-1.6572,-1.654,-1.6465,-1.6539,-1.6539,-1.6644,-1.6659,-1.6695,-1.6807,-1.6815,-1.6767,-1.6771,-1.6775,-1.6777,0,0,0,0,0,0,0,-1.6112,-1.6134,-1.634,-1.6324,-1.6334,-1.6355,-1.6376,-1.6453,-1.6554,-1.6471,-1.6478,-1.6499,-1.6649,-1.6687,-1.67,-1.6818,-1.6766,-1.6773,-1.6778,-1.6781,-1.6987,-1.6988,0,0,0,0,0,0,-1.609,-1.6124,-1.6334,-1.6346,-1.6227,-1.6361,-1.6384,-1.643,-1.6554,-1.6572,-1.6499,-1.6502,-1.6674,-1.6691,-1.6707,-1.6782,-1.6775,-1.6782,-1.6787,-1.6986,-1.6987,-1.6988,0,0,0,0,0,0,-1.6084,-1.6108,-1.6327,-1.6237,-1.6266,-1.6366,-1.6417,-1.6434,-1.6472,-1.6575,-1.6593,-1.6519,-1.6674,-1.6696,-1.6775,-1.679,-1.6786,-1.6793,-1.6986,-1.6987,-1.6988,-1.6932,0,0,0,0,0,0,-1.6075,-1.6106,-1.6128,-1.6237,-1.6271,-1.6391,-1.6418,-1.6438,-1.6485,-1.6491,-1.6598,-1.6616,-1.6675,-1.6763,-1.6783,-1.6801,-1.6799,-1.6985,-1.6986,-1.6987,-1.6933,-1.6931,-1.6929,0,0,0,0,0,-1.6065,-1.6104,-1.6128,-1.6153,-1.6301,-1.6392,-1.6411,-1.6479,-1.6486,-1.651,-1.6576,-1.6612,-1.6785,-1.677,-1.6794,-1.6814,-1.6984,-1.6986,-1.6987,-1.6934,-1.6932,-1.693,0,0,0,0,0,0,-1.5994,-1.612,-1.6148,-1.6224,-1.6296,-1.6406,-1.6437,-1.6474,-1.6547,-1.6549,-1.663,-1.6654,-1.6726,-1.6778,-1.6759,-1.6876,-1.6888,-1.6894,-1.6839,-1.6838,-1.6836,-1.6822,-1.6806,0,0,0,0,0,-1.5987,-1.6051,-1.6157,-1.6214,-1.6249,-1.6336,-1.6379,-1.6425,-1.6504,-1.6535,-1.6607,-1.6682,-1.6753,-1.6798,-1.687,-1.6941,-1.6966,-1.6967,-1.6965,-1.6963,-1.6968,-1.701,-1.7012,-1.6993,-1.6993,-1.6993,0,0,-1.5974,-1.605,-1.6085,-1.6202,-1.6263,-1.6328,-1.6362,-1.6428,-1.6477,-1.6545,-1.6624,-1.668,-1.6769,-1.6845,-1.6882,-1.689,-1.6978,-1.6965,-1.6963,-1.6969,-1.7012,-1.7014,-1.7015,-1.6994,-1.6994,-1.6994,0,0,-1.5982,-1.6046,-1.6101,-1.6162,-1.6256,-1.6314,-1.6327,-1.6431,-1.647,-1.6552,-1.6604,-1.6663,-1.6784,-1.6846,-1.6893,-1.6926,-1.6963,-1.6947,-1.6938,-1.6978,-1.698,-1.6982,-1.6994,-1.6997,-1.6951,-1.6951,-1.6951,0,-1.5953,-1.6052,-1.6124,-1.6188,-1.6238,-1.6303,-1.6359,-1.6415,-1.6527,-1.656,-1.6568,-1.6722,-1.6787,-1.6879,-1.6887,-1.6922,-1.694,-1.6935,-1.6974,-1.6976,-1.6979,-1.6992,-1.6996,-1.6949,-1.6949,-1.6949,-1.6949,0,-1.6013,-1.6081,-1.6114,-1.622,-1.6274,-1.6334,-1.6415,-1.6461,-1.6502,-1.656,-1.6642,-1.6722,-1.6811,-1.6836,-1.6877,-1.6934,-1.6937,-1.6958,-1.6972,-1.6977,-1.6991,-1.6996,-1.6945,-1.6946,-1.6947,-1.6947,0,0,-1.5982,-1.6128,-1.6139,-1.6188,-1.6297,-1.6351,-1.6413,-1.6501,-1.6539,-1.6614,-1.6669,-1.6771,-1.6792,-1.6845,-1.6894,-1.6929,-1.6951,-1.6947,-1.6951,-1.6946,-1.702,-1.7003,-1.7008,-1.6976,-1.6978,-1.6978,-1.7013,0,-1.6005,-1.6121,-1.6188,-1.6276,-1.634,-1.6403,-1.6458,-1.653,-1.6586,-1.6649,-1.671,-1.6781,-1.6803,-1.6836,-1.6874,-1.694,-1.6967,-1.6939,-1.7029,-1.7031,-1.7005,-1.7015,-1.6997,-1.7025,-1.7018,-1.7019,-1.702,0,-1.6048,-1.6122,-1.6217,-1.6319,-1.6348,-1.6396,-1.6482,-1.6541,-1.6625,-1.6663,-1.6723,-1.6772,-1.6842,-1.685,-1.6947,-1.6926,-1.6967,-1.7005,-1.7008,-1.7019,-1.7026,-1.7026,-1.7036,-1.704,-1.7029,-1.7028,-1.7027,0,-1.6017,-1.614,-1.6213,-1.6253,-1.6374,-1.6406,-1.6458,-1.6542,-1.659,-1.6666,-1.6698,-1.678,-1.6825,-1.6888,-1.6958,-1.6957,-1.7048,-1.7062,-1.7082,-1.7081,-1.7099,-1.7097,-1.7115,-1.7124,-1.7124,-1.7124,-1.7124,0,-1.6036,-1.6092,-1.6201,-1.6245,-1.631,-1.6386,-1.6448,-1.6505,-1.6579,-1.6636,-1.6695,-1.6748,-1.6837,-1.6901,-1.6956,-1.7029,-1.7049,-1.7082,-1.7096,-1.7077,-1.7072,-1.7105,-1.7105,-1.7125,-1.7125,-1.7125,-1.7125,0,-1.6012,-1.6087,-1.6171,-1.6278,-1.6306,-1.6349,-1.6441,-1.6488,-1.6546,-1.6618,-1.6639,-1.6732,-1.681,-1.6886,-1.6991,-1.7028,-1.7101,-1.7119,-1.7072,-1.708,-1.7096,-1.7094,-1.7137,-1.7147,-1.7148,-1.7147,-1.7147,0,-1.602,-1.6064,-1.6176,-1.6219,-1.6269,-1.6337,-1.6387,-1.6465,-1.6514,-1.6614,-1.6648,-1.6731,-1.6801,-1.6923,-1.7,-1.7081,-1.7102,-1.7112,-1.7115,-1.7094,-1.7103,-1.71,-1.7105,-1.7109,-1.7109,-1.7109,-1.7108,0,-1.6026,-1.6061,-1.6131,-1.6214,-1.6272,-1.6341,-1.6412,-1.6444,-1.6535,-1.6588,-1.6669,-1.6723,-1.683,-1.6912,-1.7002,-1.7056,-1.7098,-1.7107,-1.7116,-1.7097,-1.7068,-1.7085,-1.7067,-1.7106,-1.7106,-1.7106,-1.7106,-1.7106,-1.6019,-1.6061,-1.6147,-1.6223,-1.6285,-1.635,-1.6399,-1.6464,-1.6533,-1.6626,-1.6668,-1.6749,-1.6834,-1.6959,-1.7012,-1.7077,-1.7087,-1.71,-1.7104,-1.7106,-1.7102,-1.7057,-1.7094,-1.7094,-1.7094,-1.7094,-1.7094,0,-1.6028,-1.6087,-1.6156,-1.6254,-1.6314,-1.6348,-1.6428,-1.6476,-1.6548,-1.6622,-1.669,-1.6784,-1.6863,-1.6946,-1.7031,-1.7067,-1.7089,-1.7087,-1.7085,-1.7097,-1.7088,-1.7072,-1.7068,-1.7068,-1.7068,-1.7068,-1.7068,-1.7068,-1.604,-1.6115,-1.616,-1.6266,-1.6324,-1.6405,-1.6448,-1.6509,-1.6569,-1.667,-1.6737,-1.679,-1.6869,-1.696,-1.7035,-1.7057,-1.7086,-1.7079,-1.7106,-1.7096,-1.7098,-1.7099,-1.7085,-1.7084,-1.7084,-1.7111,-1.7111,-1.7111]},{"header":{"parameterUnit":"m.s-1","parameterCategory":1,"la1":30.2991,"la2":30.254,"lo1":-89.0895,"lo2":-89.0444,"dy":0.0017,"dx":0.0017,"nx":28,"ny":28,"refTime":"2025-08-07T03:00:00:Z","depth":0,"parameterNumber":3,"parameterNumberName":"V-component_of_WINDS"},"data":[0,0,0,0,0,0,0,0,0,0,0,0,0,0,0,0,0,0,0,0,0,0,0,0,0,0,0,0,0,0,0,0,0,0,0,0,0,0,0,0,0,0,0,0,0,0,0,0,0,0,0,0,0,0,0,0,0,0,0.9282,0.9281,0,0.9241,0.9241,0.924,0.9192,0.9191,0.919,0.919,0.9148,0.9147,0.9147,0,0,0,0,0,0,0,0,0,0,0,0,0,0.9316,0.9315,0.9282,0.9281,0.9281,0.9241,0.9241,0.924,0.9192,0.9191,0.919,0.9189,0.9148,0.9147,0.9147,0,0,0,0,0,0,0,0,0,0,0,0,0,0.9291,0.9315,0.9282,0.9252,0.9249,0.9242,0.9241,0.924,0.9192,0.9191,0.919,0.9189,0.9148,0.9147,0.9147,0.9165,0,0,0.9145,0.9144,0,0,0,0,0,0,0,0,0.9292,0.9289,0.9257,0.9254,0.9251,0.922,0.9237,0.9215,0.9192,0.9214,0.919,0.9188,0.9173,0.917,0.9165,0.9163,0.9161,0.9145,0.9144,0.9144,0.9144,0,0,0,0,0,0,0,0.9294,0.9291,0.9266,0.9256,0.9253,0.924,0.9235,0.9233,0.92,0.9212,0.9208,0.9204,0.9171,0.9166,0.9163,0.9161,0.9145,0.9144,0.9144,0.9143,0.917,0.9171,0,0,0,0,0,0,0.93,0.9293,0.9267,0.9264,0.9269,0.924,0.9235,0.9231,0.92,0.9194,0.9205,0.9202,0.9167,0.9164,0.9162,0.918,0.9144,0.9143,0.9143,0.9169,0.917,0.9172,0,0,0,0,0,0,0.9301,0.9298,0.9269,0.9278,0.9273,0.9241,0.9237,0.9231,0.9226,0.9195,0.9189,0.9206,0.9166,0.9163,0.9164,0.9178,0.9143,0.9142,0.9168,0.917,0.9171,0.9218,0,0,0,0,0,0,0.9302,0.9299,0.9306,0.9278,0.9273,0.9273,0.9238,0.9231,0.9225,0.922,0.9194,0.9188,0.9165,0.9165,0.9164,0.9176,0.9142,0.9166,0.9169,0.9171,0.9215,0.9221,0.9226,0,0,0,0,0,0.9304,0.9321,0.9307,0.9304,0.9281,0.9273,0.927,0.9243,0.9226,0.9233,0.9213,0.9189,0.9177,0.9166,0.9164,0.9176,0.9165,0.9168,0.917,0.9212,0.9219,0.9225,0,0,0,0,0,0,0.9352,0.9317,0.9301,0.931,0.9295,0.9265,0.9273,0.9252,0.9241,0.9238,0.9204,0.9199,0.9204,0.919,0.9179,0.9192,0.9168,0.917,0.92,0.9207,0.9212,0.9215,0.9141,0,0,0,0,0,0.9363,0.9361,0.933,0.9341,0.9334,0.9305,0.9301,0.9281,0.9264,0.9258,0.9238,0.9222,0.9214,0.921,0.9201,0.9213,0.9205,0.922,0.9226,0.923,0.9232,0.9235,0.9241,0.918,0.918,0.918,0,0,0.9387,0.9368,0.9368,0.935,0.9336,0.9333,0.93,0.9299,0.9296,0.9257,0.9257,0.9242,0.9222,0.9228,0.923,0.9217,0.9247,0.9233,0.9237,0.9237,0.9238,0.9244,0.9249,0.9181,0.9181,0.9181,0,0,0.9429,0.9415,0.9421,0.9408,0.9388,0.9368,0.937,0.9343,0.9331,0.9331,0.9301,0.9297,0.9285,0.9272,0.9263,0.9299,0.9277,0.9297,0.9326,0.9329,0.9334,0.9338,0.9349,0.9354,0.93,0.93,0.93,0,0.9461,0.9456,0.9428,0.9428,0.942,0.9385,0.9391,0.9379,0.9357,0.9352,0.9338,0.9321,0.9306,0.9307,0.9316,0.9311,0.931,0.93,0.9336,0.934,0.9343,0.9353,0.9358,0.9302,0.9302,0.9302,0.9301,0,0.9496,0.9493,0.9501,0.948,0.9473,0.9476,0.9447,0.9444,0.9425,0.9406,0.9405,0.9385,0.9371,0.937,0.9352,0.9369,0.9361,0.9342,0.9317,0.9352,0.9361,0.9365,0.9306,0.9305,0.9304,0.9304,0,0,0.9567,0.953,0.9533,0.9522,0.9497,0.9494,0.9495,0.9481,0.9478,0.9464,0.9463,0.9453,0.9435,0.9425,0.9405,0.9408,0.9435,0.9388,0.9387,0.9396,0.9451,0.9465,0.947,0.9421,0.9421,0.9422,0.9452,0,0.9603,0.9603,0.9577,0.9584,0.958,0.9546,0.9547,0.9531,0.9513,0.9507,0.9487,0.948,0.9457,0.9451,0.9453,0.9432,0.9446,0.9429,0.9418,0.9418,0.9423,0.9475,0.949,0.9519,0.9456,0.9456,0.9457,0,0.9645,0.9633,0.964,0.9613,0.961,0.9611,0.9596,0.9591,0.9571,0.9558,0.9547,0.9524,0.9521,0.9499,0.9494,0.9484,0.9478,0.9467,0.9467,0.9464,0.9439,0.9472,0.9528,0.9532,0.9462,0.9462,0.9462,0,0.9694,0.968,0.9682,0.9674,0.9643,0.9644,0.9631,0.9611,0.9604,0.959,0.9585,0.9572,0.9564,0.9553,0.9526,0.9512,0.9525,0.95,0.9512,0.9513,0.9516,0.9516,0.9571,0.9514,0.9514,0.9514,0.9514,0,0.9737,0.9742,0.9703,0.9704,0.9708,0.9678,0.9683,0.9666,0.9648,0.9644,0.9615,0.9612,0.9577,0.957,0.9548,0.9547,0.9544,0.9533,0.9527,0.9535,0.9536,0.9529,0.9526,0.9515,0.9515,0.9515,0.9514,0,0.9792,0.9767,0.9766,0.9737,0.9729,0.9734,0.9708,0.9707,0.9688,0.9683,0.968,0.965,0.9639,0.9612,0.9594,0.958,0.9584,0.9574,0.9591,0.9587,0.96,0.9599,0.9652,0.9657,0.9599,0.9599,0.96,0,0.9821,0.9824,0.9795,0.979,0.9778,0.9772,0.9765,0.9734,0.9728,0.9705,0.9707,0.9694,0.9682,0.9667,0.9643,0.9629,0.9617,0.9637,0.9615,0.9622,0.9616,0.9616,0.9615,0.9641,0.9642,0.9643,0.9643,0,0.9873,0.986,0.9851,0.9837,0.9829,0.9817,0.9802,0.98,0.9766,0.976,0.9749,0.974,0.9722,0.971,0.9692,0.9677,0.9654,0.965,0.9652,0.966,0.9669,0.9663,0.9602,0.9649,0.9649,0.9648,0.9648,0.9648,0.9915,0.9915,0.9895,0.9885,0.9871,0.9858,0.9856,0.9836,0.9826,0.981,0.9792,0.9783,0.9762,0.9736,0.9723,0.9714,0.9702,0.9705,0.9706,0.9707,0.971,0.9671,0.9711,0.9711,0.971,0.971,0.971,0,0.9964,0.9949,0.9941,0.9922,0.9914,0.9894,0.9877,0.9871,0.9863,0.9846,0.9835,0.9822,0.9809,0.9784,0.9768,0.9766,0.9755,0.9763,0.9762,0.9759,0.9722,0.9721,0.9772,0.9772,0.9772,0.9772,0.9772,0.9772,0.9989,0.9989,0.9973,0.9965,0.995,0.9941,0.9932,0.992,0.9906,0.9893,0.9882,0.9866,0.9844,0.9827,0.9814,0.9806,0.9801,0.9812,0.9802,0.9768,0.9762,0.9756,0.9755,0.9812,0.9812,0.9839,0.9839,0.9839]}]]